Location: Recife
(8.0585°S, 34.8848°W)
Time: 10:23:52
(UTC-03:00)

Transit 2A Rocket - Pass Details

Date: 17 April 2026
Orbit: 587 x 895 km, 66.7° (Epoch: 14 May)

Event Time Altitude Azimuth Distance (km) Brightness Sun altitude
Rises 23:31:34 0° 211° (SSW) 3,438 - -85.9°
Reaches altitude 10° 23:34:06 10° 216° (SW) 2,526 - -85.4°
Maximum altitude 23:39:45 48° 289° (WNW) 1,158 - -84.2°
Drops below altitude 10° 23:45:28 10° 2° (N) 2,549 - -82.9°
Sets 23:48:03 0° 8° (N) 3,472 - -82.3°
